| time (UTC) | temp F | wind direction | speed MPH | gust MPH | rain 1hr in | rain 24hr in | rain mn in | humidity % | barometer mb |
| 20260901161209 | 62 | 82 | 0.0 | 0.0 | 0.00 | 0.00 | 0.00 | 70 | 935.6 |
| 20260901160705 | 62 | 76 | 0.0 | 0.0 | 0.00 | 0.00 | 0.00 | 72 | 935.6 |
| 20260901160200 | 61 | 27 | 0.0 | 0.0 | 0.00 | 0.00 | 0.00 | 71 | 935.7 |
| 20260901155659 | 61 | 259 | 0.0 | 0.0 | 0.00 | 0.00 | 0.00 | 74 | 935.7 |
| 20260901155154 | 60 | 39 | 0.0 | 0.0 | 0.00 | 0.00 | 0.00 | 74 | 935.5 |
| 20260901154649 | 60 | 29 | 0.0 | 0.0 | 0.00 | 0.00 | 0.00 | 74 | 935.6 |
| 20260901154138 | 59 | 16 | 0.0 | 0.0 | 0.00 | 0.00 | 0.00 | 74 | 935.5 |
| 20260901153634 | 59 | 41 | 0.0 | 0.0 | 0.00 | 0.00 | 0.00 | 75 | 935.5 |
| 20260901153132 | 58 | 359 | 2.0 | 3.0 | 0.00 | 0.00 | 0.00 | 76 | 935.6 |
| 20260901152628 | 58 | 355 | 0.0 | 0.0 | 0.00 | 0.00 | 0.00 | 76 | 935.5 |
| 20260901152126 | 58 | 10 | 0.0 | 2.0 | 0.00 | 0.00 | 0.00 | 76 | 935.5 |
| 20260901151622 | 59 | 41 | 0.0 | 1.0 | 0.00 | 0.00 | 0.00 | 75 | 935.6 |
| 20260901151122 | 59 | 52 | 0.0 | 0.0 | 0.00 | 0.00 | 0.00 | 75 | 935.5 |
| 20260901150621 | 60 | 63 | 0.0 | 0.0 | 0.00 | 0.00 | 0.00 | 75 | 935.5 |
| 20260901150119 | 59 | 49 | 0.0 | 0.0 | 0.00 | 0.00 | 0.00 | 77 | 935.5 |
| 20260901145613 | 58 | 53 | 0.0 | 0.0 | 0.00 | 0.00 | 0.00 | 79 | 935.6 |
| 20260901145112 | 57 | 50 | 0.0 | 0.0 | 0.00 | 0.00 | 0.00 | 81 | 935.6 |
| 20260901144608 | 57 | 68 | 0.0 | 0.0 | 0.00 | 0.00 | 0.00 | 82 | 935.3 |
| 20260901144102 | 56 | 69 | 0.0 | 0.0 | 0.00 | 0.00 | 0.00 | 82 | 935.8 |
| 20260901143558 | 56 | 61 | 0.0 | 0.0 | 0.00 | 0.00 | 0.00 | 83 | 935.6 |
| 20260901143054 | 56 | 83 | 0.0 | 0.0 | 0.00 | 0.00 | 0.00 | 83 | 935.6 |
| 20260901142549 | 55 | 50 | 0.0 | 0.0 | 0.00 | 0.00 | 0.00 | 85 | 935.7 |
| 20260901142049 | 54 | 57 | 0.0 | 0.0 | 0.00 | 0.00 | 0.00 | 85 | 935.8 |
| 20260901141544 | 53 | 49 | 0.0 | 0.0 | 0.00 | 0.00 | 0.00 | 88 | 935.7 |
| 20260901141040 | 53 | 62 | 0.0 | 0.0 | 0.00 | 0.00 | 0.00 | 89 | 935.9 |
| 20260901140538 | 52 | 39 | 0.0 | 0.0 | 0.00 | 0.00 | 0.00 | 90 | 936.0 |
| 20260901140033 | 52 | 49 | 0.0 | 0.0 | 0.00 | 0.00 | 0.00 | 92 | 936.0 |
| 20260901135532 | 52 | 58 | 0.0 | 0.0 | 0.00 | 0.00 | 0.00 | 93 | 935.8 |
| 20260901135027 | 51 | 42 | 0.0 | 0.0 | 0.00 | 0.00 | 0.00 | 93 | 935.7 |
| 20260901134524 | 51 | 44 | 0.0 | 0.0 | 0.00 | 0.00 | 0.00 | 94 | 935.5 |
| 20260901134023 | 50 | 47 | 0.0 | 0.0 | 0.00 | 0.00 | 0.00 | 95 | 934.5 |
| 20260901133522 | 49 | 60 | 0.0 | 0.0 | 0.00 | 0.00 | 0.00 | 95 | 933.4 |
| 20260901133021 | 49 | 53 | 0.0 | 0.0 | 0.00 | 0.00 | 0.00 | 95 | 933.2 |
| 20260901132520 | 49 | 91 | 0.0 | 0.0 | 0.00 | 0.00 | 0.00 | 95 | 932.7 |
| 20260901132015 | 48 | 81 | 0.0 | 0.0 | 0.00 | 0.00 | 0.00 | 96 | 932.7 |
| 20260901131515 | 48 | 61 | 0.0 | 0.0 | 0.00 | 0.00 | 0.00 | 96 | 932.7 |
| 20260901131010 | 48 | 46 | 0.0 | 0.0 | 0.00 | 0.00 | 0.00 | 96 | 932.8 |
| 20260901130505 | 48 | 57 | 0.0 | 0.0 | 0.00 | 0.00 | 0.00 | 96 | 932.8 |
| 20260901130002 | 48 | 47 | 0.0 | 0.0 | 0.00 | 0.00 | 0.00 | 96 | 933.4 |
| 20260901125457 | 48 | 39 | 0.0 | 0.0 | 0.00 | 0.00 | 0.00 | 96 | 934.2 |
| 20260901124957 | 48 | 55 | 0.0 | 0.0 | 0.00 | 0.00 | 0.00 | 95 | 934.7 |
| 20260901124452 | 49 | 36 | 0.0 | 0.0 | 0.00 | 0.00 | 0.00 | 95 | 934.5 |
| 20260901123947 | 49 | 39 | 0.0 | 0.0 | 0.00 | 0.00 | 0.00 | 95 | 934.5 |
| 20260901123442 | 50 | 43 | 0.0 | 0.0 | 0.00 | 0.00 | 0.00 | 95 | 934.5 |
| 20260901122940 | 50 | 43 | 0.0 | 0.0 | 0.00 | 0.00 | 0.00 | 95 | 934.4 |
| 20260901122439 | 50 | 72 | 0.0 | 0.0 | 0.00 | 0.00 | 0.00 | 95 | 934.7 |
| 20260901121939 | 50 | 161 | 0.0 | 0.0 | 0.00 | 0.00 | 0.00 | 95 | 934.4 |
| 20260901121434 | 50 | 49 | 0.0 | 0.0 | 0.00 | 0.00 | 0.00 | 95 | 934.5 |
| 20260901120929 | 50 | 74 | 0.0 | 0.0 | 0.00 | 0.00 | 0.00 | 95 | 934.5 |
| 20260901120428 | 50 | 72 | 0.0 | 0.0 | 0.00 | 0.00 | 0.00 | 95 | 934.4 |
| 20260901115924 | 50 | 67 | 0.0 | 0.0 | 0.00 | 0.00 | 0.00 | 95 | 934.3 |
| 20260901115424 | 50 | 54 | 0.0 | 0.0 | 0.00 | 0.00 | 0.00 | 95 | 934.5 |
| 20260901114922 | 51 | 45 | 0.0 | 0.0 | 0.00 | 0.00 | 0.00 | 95 | 934.2 |
| 20260901114417 | 51 | 39 | 0.0 | 0.0 | 0.00 | 0.00 | 0.00 | 95 | 934.4 |
| 20260901113915 | 51 | 54 | 0.0 | 0.0 | 0.00 | 0.00 | 0.00 | 95 | 934.8 |
| 20260901113414 | 51 | 35 | 0.0 | 0.0 | 0.00 | 0.00 | 0.00 | 95 | 934.4 |
| 20260901112910 | 51 | 36 | 0.0 | 0.0 | 0.00 | 0.00 | 0.00 | 94 | 934.5 |
| 20260901112405 | 52 | 43 | 0.0 | 0.0 | 0.00 | 0.00 | 0.00 | 94 | 934.3 |
| 20260901111859 | 52 | 60 | 0.0 | 0.0 | 0.00 | 0.00 | 0.00 | 94 | 934.3 |
| 20260901111358 | 52 | 42 | 0.0 | 0.0 | 0.00 | 0.00 | 0.00 | 94 | 934.5 |
| 20260901110857 | 52 | 52 | 0.0 | 0.0 | 0.00 | 0.00 | 0.00 | 94 | 934.7 |
| 20260901110353 | 52 | 69 | 0.0 | 0.0 | 0.00 | 0.00 | 0.00 | 94 | 934.7 |
| 20260901105848 | 52 | 67 | 0.0 | 0.0 | 0.00 | 0.00 | 0.00 | 94 | 934.4 |
| 20260901105344 | 53 | 60 | 0.0 | 0.0 | 0.00 | 0.00 | 0.00 | 94 | 934.7 |
| 20260901104840 | 53 | 45 | 0.0 | 0.0 | 0.00 | 0.00 | 0.00 | 94 | 934.5 |
| 20260901104335 | 52 | 34 | 0.0 | 0.0 | 0.00 | 0.00 | 0.00 | 93 | 934.5 |
| 20260901103831 | 53 | 33 | 0.0 | 0.0 | 0.00 | 0.00 | 0.00 | 93 | 934.5 |
| 20260901103330 | 53 | 42 | 0.0 | 0.0 | 0.00 | 0.00 | 0.00 | 93 | 934.5 |
| 20260901102826 | 53 | 44 | 0.0 | 0.0 | 0.00 | 0.00 | 0.00 | 93 | 934.5 |
| 20260901102320 | 53 | 57 | 0.0 | 0.0 | 0.00 | 0.00 | 0.00 | 93 | 934.4 |
| 20260901101816 | 53 | 49 | 0.0 | 0.0 | 0.00 | 0.00 | 0.00 | 93 | 934.5 |
| 20260901101315 | 53 | 52 | 0.0 | 0.0 | 0.00 | 0.00 | 0.00 | 93 | 934.5 |
| 20260901100814 | 53 | 54 | 0.0 | 0.0 | 0.00 | 0.00 | 0.00 | 93 | 934.3 |
| 20260901100309 | 53 | 49 | 0.0 | 0.0 | 0.00 | 0.00 | 0.00 | 93 | 934.3 |
| 20260901095808 | 53 | 39 | 0.0 | 0.0 | 0.00 | 0.00 | 0.00 | 93 | 934.4 |
| 20260901095306 | 54 | 40 | 0.0 | 0.0 | 0.00 | 0.00 | 0.00 | 93 | 934.4 |
| 20260901094800 | 54 | 41 | 0.0 | 0.0 | 0.00 | 0.00 | 0.00 | 93 | 934.4 |
| 20260901094255 | 54 | 44 | 0.0 | 0.0 | 0.00 | 0.00 | 0.00 | 93 | 934.3 |
| 20260901093750 | 54 | 33 | 0.0 | 0.0 | 0.00 | 0.00 | 0.00 | 93 | 934.5 |
| 20260901093249 | 54 | 71 | 0.0 | 0.0 | 0.00 | 0.00 | 0.00 | 93 | 934.3 |
| 20260901092745 | 54 | 43 | 0.0 | 0.0 | 0.00 | 0.00 | 0.00 | 93 | 934.4 |
| 20260901092241 | 54 | 68 | 0.0 | 0.0 | 0.00 | 0.00 | 0.00 | 93 | 934.3 |
| 20260901091736 | 54 | 37 | 0.0 | 0.0 | 0.00 | 0.00 | 0.00 | 93 | 934.5 |
| 20260901091232 | 54 | 42 | 0.0 | 0.0 | 0.00 | 0.00 | 0.00 | 93 | 934.5 |
| 20260901090726 | 54 | 48 | 0.0 | 0.0 | 0.00 | 0.00 | 0.00 | 93 | 934.7 |
| 20260901090227 | 54 | 63 | 0.0 | 0.0 | 0.00 | 0.00 | 0.00 | 93 | 934.5 |
| 20260901085723 | 54 | 43 | 0.0 | 0.0 | 0.00 | 0.00 | 0.00 | 93 | 934.4 |
| 20260901085218 | 54 | 42 | 0.0 | 0.0 | 0.00 | 0.00 | 0.00 | 93 | 934.5 |
| 20260901084714 | 54 | 42 | 0.0 | 0.0 | 0.00 | 0.00 | 0.00 | 93 | 934.5 |
| 20260901084210 | 54 | 42 | 0.0 | 0.0 | 0.00 | 0.00 | 0.00 | 93 | 934.4 |
| 20260901083705 | 54 | 38 | 0.0 | 0.0 | 0.00 | 0.00 | 0.00 | 93 | 934.7 |
| 20260901083204 | 54 | 42 | 0.0 | 0.0 | 0.00 | 0.00 | 0.00 | 94 | 934.5 |
| 20260901082703 | 54 | 79 | 0.0 | 0.0 | 0.00 | 0.00 | 0.00 | 94 | 934.5 |
| 20260901082159 | 54 | 103 | 0.0 | 0.0 | 0.00 | 0.00 | 0.00 | 94 | 934.5 |
| 20260901081655 | 54 | 39 | 0.0 | 0.0 | 0.00 | 0.00 | 0.00 | 94 | 935.0 |
| 20260901081154 | 54 | 54 | 0.0 | 0.0 | 0.00 | 0.00 | 0.00 | 94 | 934.5 |
| 20260901080649 | 54 | 22 | 0.0 | 0.0 | 0.00 | 0.00 | 0.00 | 94 | 934.9 |
| 20260901080148 | 54 | 39 | 0.0 | 0.0 | 0.00 | 0.00 | 0.00 | 95 | 934.8 |
| 20260901075643 | 54 | 41 | 0.0 | 0.0 | 0.00 | 0.00 | 0.00 | 95 | 934.8 |
| 20260901075142 | 54 | 40 | 0.0 | 0.0 | 0.00 | 0.00 | 0.00 | 95 | 934.8 |
| 20260901074642 | 54 | 43 | 0.0 | 0.0 | 0.00 | 0.00 | 0.00 | 95 | 935.0 |
| 20260901074137 | 54 | 30 | 0.0 | 0.0 | 0.00 | 0.00 | 0.00 | 95 | 934.8 |
| 20260901073633 | 54 | 23 | 0.0 | 0.0 | 0.00 | 0.00 | 0.00 | 95 | 934.8 |
| 20260901073129 | 55 | 34 | 0.0 | 0.0 | 0.00 | 0.00 | 0.00 | 95 | 934.8 |
| 20260901072624 | 55 | 35 | 0.0 | 0.0 | 0.00 | 0.00 | 0.00 | 95 | 935.0 |
| 20260901072119 | 54 | 34 | 0.0 | 0.0 | 0.00 | 0.00 | 0.00 | 95 | 934.9 |
| 20260901071619 | 54 | 32 | 0.0 | 0.0 | 0.00 | 0.00 | 0.00 | 95 | 935.1 |
| 20260901071119 | 54 | 34 | 0.0 | 0.0 | 0.00 | 0.00 | 0.00 | 95 | 935.1 |
| 20260901070613 | 54 | 61 | 0.0 | 0.0 | 0.00 | 0.00 | 0.00 | 95 | 935.0 |
| 20260901070109 | 55 | 42 | 0.0 | 0.0 | 0.00 | 0.00 | 0.00 | 95 | 934.9 |
| 20260901065603 | 54 | 43 | 0.0 | 0.0 | 0.00 | 0.00 | 0.00 | 95 | 934.9 |
| 20260901065102 | 55 | 72 | 0.0 | 0.0 | 0.00 | 0.00 | 0.00 | 95 | 935.1 |
| 20260901064600 | 54 | 32 | 0.0 | 0.0 | 0.00 | 0.00 | 0.00 | 95 | 934.8 |
| 20260901064056 | 54 | 36 | 0.0 | 0.0 | 0.00 | 0.00 | 0.00 | 94 | 934.9 |
| 20260901063552 | 54 | 40 | 0.0 | 0.0 | 0.00 | 0.00 | 0.00 | 94 | 934.8 |
| 20260901063048 | 54 | 48 | 0.0 | 0.0 | 0.00 | 0.00 | 0.00 | 94 | 934.8 |
| 20260901062544 | 54 | 41 | 0.0 | 0.0 | 0.00 | 0.00 | 0.00 | 94 | 934.8 |
| 20260901062039 | 55 | 55 | 0.0 | 0.0 | 0.00 | 0.00 | 0.00 | 94 | 934.9 |
| 20260901061536 | 54 | 33 | 0.0 | 0.0 | 0.00 | 0.00 | 0.00 | 94 | 935.0 |
| 20260901061031 | 55 | 23 | 0.0 | 0.0 | 0.00 | 0.00 | 0.00 | 94 | 935.0 |
| 20260901060530 | 55 | 32 | 0.0 | 0.0 | 0.00 | 0.00 | 0.00 | 94 | 934.9 |
| 20260901060026 | 55 | 77 | 0.0 | 0.0 | 0.00 | 0.14 | 0.14 | 94 | 934.9 |
| 20260901055521 | 55 | 57 | 0.0 | 0.0 | 0.00 | 0.14 | 0.14 | 94 | 935.1 |
| 20260901055018 | 55 | 46 | 0.0 | 0.0 | 0.00 | 0.14 | 0.14 | 94 | 935.3 |
| 20260901054515 | 55 | 52 | 0.0 | 0.0 | 0.00 | 0.14 | 0.14 | 94 | 935.1 |
| 20260901054010 | 55 | 40 | 0.0 | 0.0 | 0.00 | 0.14 | 0.14 | 94 | 935.3 |
| 20260901053506 | 55 | 61 | 0.0 | 0.0 | 0.00 | 0.14 | 0.14 | 94 | 935.5 |
| 20260901053001 | 56 | 92 | 0.0 | 0.0 | 0.00 | 0.14 | 0.14 | 93 | 935.2 |
| 20260901052457 | 55 | 54 | 0.0 | 0.0 | 0.00 | 0.14 | 0.14 | 93 | 935.7 |
| 20260901051955 | 56 | 80 | 0.0 | 0.0 | 0.00 | 0.14 | 0.14 | 93 | 935.6 |
| 20260901051452 | 56 | 127 | 0.0 | 0.0 | 0.00 | 0.14 | 0.14 | 93 | 935.3 |
| 20260901050950 | 56 | 82 | 0.0 | 0.0 | 0.00 | 0.14 | 0.14 | 93 | 935.7 |
| 20260901050446 | 56 | 45 | 0.0 | 0.0 | 0.00 | 0.14 | 0.14 | 93 | 935.3 |
| 20260901045946 | 56 | 44 | 0.0 | 0.0 | 0.00 | 0.14 | 0.14 | 93 | 935.6 |
| 20260901045441 | 56 | 32 | 0.0 | 0.0 | 0.00 | 0.14 | 0.14 | 92 | 935.6 |
| 20260901044936 | 57 | 51 | 0.0 | 0.0 | 0.00 | 0.14 | 0.14 | 92 | 936.0 |
| 20260901044432 | 56 | 45 | 0.0 | 0.0 | 0.00 | 0.14 | 0.14 | 92 | 935.8 |
| 20260901043928 | 57 | 75 | 0.0 | 0.0 | 0.00 | 0.14 | 0.14 | 92 | 936.1 |
| 20260901043424 | 57 | 65 | 0.0 | 0.0 | 0.00 | 0.14 | 0.14 | 92 | 936.0 |
| 20260901042918 | 56 | 42 | 0.0 | 0.0 | 0.00 | 0.14 | 0.14 | 92 | 936.4 |
| 20260901042412 | 56 | 42 | 0.0 | 0.0 | 0.00 | 0.14 | 0.14 | 92 | 936.6 |
| 20260901041908 | 56 | 42 | 0.0 | 0.0 | 0.00 | 0.14 | 0.14 | 91 | 936.6 |
| 20260901041403 | 56 | 78 | 0.0 | 0.0 | 0.00 | 0.14 | 0.14 | 91 | 936.6 |
| 20260901040902 | 56 | 38 | 0.0 | 0.0 | 0.00 | 0.14 | 0.14 | 91 | 936.5 |
| 20260901040402 | 56 | 55 | 0.0 | 0.0 | 0.00 | 0.14 | 0.14 | 91 | 936.9 |
| 20260901035901 | 57 | 54 | 0.0 | 0.0 | 0.00 | 0.14 | 0.14 | 91 | 936.8 |
| 20260901035400 | 56 | 40 | 0.0 | 0.0 | 0.00 | 0.14 | 0.14 | 91 | 936.7 |
| 20260901034858 | 56 | 48 | 0.0 | 0.0 | 0.00 | 0.14 | 0.14 | 91 | 936.8 |
| 20260901034353 | 57 | 62 | 0.0 | 0.0 | 0.00 | 0.14 | 0.14 | 91 | 936.8 |
| 20260901033849 | 57 | 49 | 0.0 | 0.0 | 0.00 | 0.14 | 0.14 | 90 | 936.9 |
| 20260901033348 | 57 | 43 | 0.0 | 0.0 | 0.00 | 0.14 | 0.14 | 90 | 936.9 |
| 20260901032846 | 57 | 38 | 0.0 | 0.0 | 0.07 | 0.14 | 0.14 | 90 | 937.2 |
| 20260901032346 | 57 | 64 | 0.0 | 0.0 | 0.07 | 0.14 | 0.14 | 89 | 937.0 |
| 20260901031841 | 57 | 53 | 0.0 | 0.0 | 0.00 | 0.13 | 0.13 | 89 | 936.8 |
| 20260901031337 | 57 | 47 | 0.0 | 0.0 | 0.00 | 0.13 | 0.13 | 88 | 936.8 |
| 20260901030837 | 57 | 77 | 0.0 | 0.0 | 0.00 | 0.13 | 0.13 | 88 | 936.8 |
| 20260901030333 | 57 | 62 | 0.0 | 0.0 | 0.00 | 0.13 | 0.13 | 88 | 936.9 |
| 20260901025832 | 57 | 57 | 0.0 | 0.0 | 0.00 | 0.13 | 0.13 | 88 | 936.6 |
| 20260901025327 | 57 | 74 | 0.0 | 0.0 | 0.00 | 0.13 | 0.13 | 88 | 936.6 |
| 20260901024827 | 57 | 56 | 0.0 | 0.0 | 0.00 | 0.13 | 0.13 | 88 | 936.8 |
| 20260901024326 | 57 | 56 | 0.0 | 1.0 | 0.00 | 0.13 | 0.13 | 88 | 936.6 |
| 20260901023824 | 57 | 70 | 2.0 | 2.0 | 0.00 | 0.13 | 0.13 | 87 | 936.6 |
| 20260901023319 | 57 | 45 | 0.0 | 0.0 | 0.00 | 0.13 | 0.13 | 87 | 936.7 |
| 20260901022815 | 57 | 39 | 2.0 | 2.0 | 0.00 | 0.13 | 0.13 | 87 | 936.8 |
| 20260901022310 | 58 | 37 | 0.0 | 1.0 | 0.00 | 0.13 | 0.13 | 86 | 936.6 |
| 20260901021805 | 58 | 57 | 1.0 | 2.0 | 0.05 | 0.13 | 0.13 | 85 | 936.6 |
| 20260901021301 | 58 | 26 | 0.0 | 0.0 | 0.05 | 0.13 | 0.13 | 84 | 936.9 |
| 20260901020756 | 58 | 29 | 0.0 | 1.0 | 0.00 | 0.12 | 0.12 | 83 | 936.7 |
| 20260901020251 | 58 | 35 | 0.0 | 0.0 | 0.00 | 0.12 | 0.12 | 82 | 936.6 |
| 20260901015746 | 58 | 8 | 2.0 | 2.0 | 0.12 | 0.12 | 0.12 | 81 | 936.7 |
| 20260901015242 | 59 | 220 | 1.0 | 5.0 | 0.12 | 0.11 | 0.11 | 79 | 936.5 |
| 20260901014741 | 60 | 296 | 5.0 | 6.0 | 0.00 | 0.09 | 0.09 | 77 | 936.5 |
| 20260901014237 | 60 | 281 | 3.0 | 6.0 | 0.00 | 0.09 | 0.09 | 75 | 936.2 |
| 20260901013733 | 61 | 220 | 3.0 | 5.0 | 0.00 | 0.09 | 0.09 | 73 | 936.0 |
| 20260901013234 | 62 | 260 | 5.0 | 8.0 | 0.00 | 0.09 | 0.09 | 69 | 935.8 |
| 20260901012729 | 62 | 218 | 0.0 | 2.0 | 0.00 | 0.09 | 0.09 | 66 | 935.7 |
| 20260901012229 | 62 | 37 | 0.0 | 8.0 | 0.00 | 0.09 | 0.09 | 64 | 935.6 |
| 20260901011725 | 62 | 53 | 7.0 | 13.0 | 0.00 | 0.09 | 0.09 | 67 | 935.2 |
| 20260901011220 | 63 | 141 | 3.0 | 13.0 | 0.00 | 0.09 | 0.09 | 68 | 935.6 |
| 20260901010714 | 64 | 157 | 5.0 | 13.0 | 0.00 | 0.09 | 0.09 | 66 | 935.2 |
| 20260901010209 | 65 | 156 | 5.0 | 10.0 | 0.00 | 0.09 | 0.09 | 65 | 935.0 |
| 20260901005707 | 65 | 140 | 2.0 | 3.0 | 0.00 | 0.09 | 0.09 | 65 | 934.8 |
| 20260901005203 | 65 | 61 | 0.0 | 0.0 | 0.00 | 0.09 | 0.09 | 65 | 934.8 |
| 20260901004703 | 65 | 62 | 0.0 | 0.0 | 0.00 | 0.09 | 0.09 | 63 | 934.7 |
| 20260901004158 | 65 | 62 | 0.0 | 0.0 | 0.00 | 0.09 | 0.09 | 62 | 934.8 |
| 20260901003657 | 65 | 62 | 0.0 | 0.0 | 0.00 | 0.09 | 0.09 | 59 | 935.1 |
| 20260901003157 | 65 | 63 | 0.0 | 0.0 | 0.00 | 0.09 | 0.09 | 59 | 935.1 |
| 20260901002651 | 65 | 72 | 2.0 | 2.0 | 0.00 | 0.09 | 0.09 | 62 | 935.2 |
| 20260901002146 | 65 | 73 | 0.0 | 0.0 | 0.00 | 0.09 | 0.09 | 64 | 935.2 |
| 20260901001641 | 65 | 53 | 0.0 | 2.0 | 0.00 | 0.09 | 0.09 | 63 | 935.2 |
| 20260901001136 | 65 | 60 | 0.0 | 0.0 | 0.00 | 0.09 | 0.09 | 62 | 935.5 |
| 20260901000632 | 65 | 71 | 0.0 | 3.0 | 0.00 | 0.09 | 0.09 | 62 | 935.5 |
| 20260901000127 | 65 | 42 | 0.0 | 0.0 | 0.00 | 0.09 | 0.09 | 63 | 935.8 |
| 20260831235620 | 65 | 78 | 0.0 | 0.0 | 0.00 | 0.09 | 0.09 | 61 | 935.7 |
| 20260831235116 | 65 | 26 | 0.0 | 0.0 | 0.00 | 0.09 | 0.09 | 62 | 935.6 |
| 20260831234615 | 65 | 17 | 0.0 | 0.0 | 0.00 | 0.09 | 0.09 | 62 | 935.6 |
| 20260831234111 | 65 | 37 | 0.0 | 1.0 | 0.00 | 0.09 | 0.09 | 62 | 935.5 |
| 20260831233606 | 65 | 9 | 1.0 | 3.0 | 0.00 | 0.09 | 0.09 | 65 | 935.5 |
| 20260831233102 | 66 | 287 | 3.0 | 5.0 | 0.00 | 0.09 | 0.09 | 64 | 935.2 |
| 20260831232557 | 65 | 78 | 0.0 | 7.0 | 0.00 | 0.09 | 0.09 | 62 | 935.3 |
| 20260831232053 | 66 | 142 | 2.0 | 3.0 | 0.00 | 0.09 | 0.09 | 65 | 935.2 |
| 20260831231549 | 65 | 55 | 1.0 | 3.0 | 0.00 | 0.09 | 0.09 | 64 | 935.3 |
| 20260831231044 | 65 | 123 | 3.0 | 5.0 | 0.00 | 0.09 | 0.09 | 63 | 935.0 |
| 20260831230539 | 65 | 66 | 2.0 | 3.0 | 0.00 | 0.09 | 0.09 | 65 | 934.9 |
| 20260831230039 | 64 | 147 | 3.0 | 5.0 | 0.00 | 0.09 | 0.09 | 68 | 935.0 |
| 20260831225535 | 65 | 38 | 0.0 | 2.0 | 0.00 | 0.09 | 0.09 | 71 | 934.9 |
| 20260831225035 | 64 | 57 | 2.0 | 3.0 | 0.00 | 0.09 | 0.09 | 67 | 934.5 |
| 20260831224530 | 65 | 52 | 4.0 | 6.0 | 0.00 | 0.09 | 0.09 | 64 | 934.7 |
| 20260831224026 | 64 | 25 | 3.0 | 8.0 | 0.00 | 0.09 | 0.09 | 63 | 934.9 |
| 20260831223521 | 64 | 5 | 5.0 | 8.0 | 0.00 | 0.09 | 0.09 | 62 | 934.9 |
| 20260831223017 | 64 | 23 | 1.0 | 6.0 | 0.00 | 0.09 | 0.09 | 65 | 935.0 |
| 20260831222514 | 62 | 326 | 5.0 | 7.0 | 0.00 | 0.09 | 0.09 | 72 | 934.9 |
| 20260831222013 | 62 | 336 | 4.0 | 8.0 | 0.00 | 0.09 | 0.09 | 77 | 935.0 |
| 20260831221509 | 61 | 6 | 7.0 | 10.0 | 0.00 | 0.09 | 0.09 | 79 | 935.0 |
| 20260831221004 | 60 | 12 | 4.0 | 6.0 | 0.00 | 0.09 | 0.09 | 80 | 935.0 |
| 20260831220459 | 60 | 317 | 3.0 | 6.0 | 0.00 | 0.09 | 0.09 | 79 | 935.1 |
| 20260831215954 | 60 | 7 | 2.0 | 5.0 | 0.00 | 0.09 | 0.09 | 82 | 935.0 |
| 20260831215449 | 61 | 344 | 0.0 | 0.0 | 0.00 | 0.09 | 0.09 | 76 | 935.0 |
| 20260831214946 | 60 | 89 | 3.0 | 6.0 | 0.05 | 0.09 | 0.09 | 74 | 934.9 |
| 20260831214443 | 60 | 125 | 3.0 | 6.0 | 0.31 | 0.09 | 0.09 | 75 | 935.0 |
| 20260831213938 | 63 | 151 | 7.0 | 17.0 | 0.31 | 0.08 | 0.08 | 71 | 934.8 |
| 20260831213435 | 66 | 153 | 9.0 | 14.0 | 0.05 | 0.04 | 0.04 | 70 | 934.5 |
| 20260831212935 | 67 | 146 | 1.0 | 3.0 | 0.00 | 0.03 | 0.03 | 66 | 934.5 |
| 20260831212431 | 68 | 142 | 2.0 | 5.0 | 0.00 | 0.03 | 0.03 | 62 | 934.7 |
| 20260831211931 | 69 | 94 | 3.0 | 6.0 | 0.00 | 0.03 | 0.03 | 54 | 934.8 |
| 20260831211426 | 69 | 121 | 3.0 | 5.0 | 0.00 | 0.03 | 0.03 | 53 | 934.9 |
| 20260831210925 | 69 | 91 | 3.0 | 7.0 | 0.00 | 0.03 | 0.03 | 53 | 935.0 |
| 20260831210421 | 69 | 114 | 6.0 | 8.0 | 0.00 | 0.03 | 0.03 | 54 | 934.8 |
| 20260831205916 | 70 | 62 | 0.0 | 6.0 | 0.00 | 0.03 | 0.03 | 53 | 934.9 |
| 20260831205412 | 68 | 157 | 1.0 | 7.0 | 0.00 | 0.03 | 0.03 | 53 | 935.0 |
| 20260831204912 | 67 | 144 | 5.0 | 9.0 | 0.00 | 0.03 | 0.03 | 58 | 934.9 |
| 20260831204412 | 66 | 268 | 8.0 | 10.0 | 0.00 | 0.03 | 0.03 | 62 | 935.0 |
| 20260831203911 | 64 | 129 | 4.0 | 7.0 | 0.00 | 0.03 | 0.03 | 62 | 935.1 |
| 20260831203406 | 61 | 110 | 4.0 | 7.0 | 0.07 | 0.03 | 0.03 | 67 | 935.2 |
| 20260831202904 | 62 | 80 | 4.0 | 8.0 | 0.12 | 0.03 | 0.03 | 71 | 935.1 |
| 20260831202359 | 64 | 137 | 8.0 | 10.0 | 0.12 | 0.02 | 0.02 | 69 | 935.5 |
| 20260831201859 | 66 | 144 | 5.0 | 8.0 | 0.07 | 0.01 | 0.01 | 70 | 935.3 |
| 20260831201358 | 67 | 31 | 2.0 | 7.0 | 0.00 | 0.00 | 0.00 | 64 | 935.5 |
| 20260831200854 | 68 | 119 | 6.0 | 8.0 | 0.00 | 0.00 | 0.00 | 57 | 935.3 |
| 20260831200349 | 68 | 115 | 3.0 | 7.0 | 0.00 | 0.00 | 0.00 | 59 | 935.3 |
| 20260831195844 | 69 | 138 | 7.0 | 9.0 | 0.00 | 0.00 | 0.00 | 54 | 935.5 |
| 20260831195340 | 71 | 137 | 2.0 | 8.0 | 0.00 | 0.00 | 0.00 | 55 | 935.3 |
| 20260831194835 | 71 | 114 | 6.0 | 9.0 | 0.00 | 0.00 | 0.00 | 45 | 935.3 |
| 20260831194330 | 72 | 143 | 6.0 | 10.0 | 0.00 | 0.00 | 0.00 | 45 | 935.7 |
| 20260831193829 | 73 | 131 | 4.0 | 15.0 | 0.00 | 0.00 | 0.00 | 45 | 935.5 |
| 20260831193325 | 75 | 69 | 7.0 | 16.0 | 0.00 | 0.00 | 0.00 | 41 | 935.6 |
| 20260831192820 | 77 | 87 | 0.0 | 1.0 | 0.00 | 0.00 | 0.00 | 38 | 935.3 |
| 20260831192320 | 78 | 115 | 0.0 | 0.0 | 0.00 | 0.00 | 0.00 | 34 | 935.7 |
| 20260831191816 | 77 | 44 | 0.0 | 0.0 | 0.00 | 0.00 | 0.00 | 36 | 935.7 |
| 20260831191312 | 75 | 84 | 0.0 | 0.0 | 0.00 | 0.00 | 0.00 | 40 | 935.8 |
| 20260831190808 | 77 | 69 | 0.0 | 0.0 | 0.00 | 0.00 | 0.00 | 40 | 935.5 |
| 20260831190308 | 78 | 61 | 0.0 | 1.0 | 0.00 | 0.00 | 0.00 | 35 | 935.8 |
| 20260831185807 | 77 | 288 | 0.0 | 1.0 | 0.00 | 0.00 | 0.00 | 35 | 935.7 |
| 20260831185306 | 77 | 341 | 4.0 | 6.0 | 0.00 | 0.00 | 0.00 | 38 | 935.9 |
| 20260831184802 | 77 | 4 | 0.0 | 5.0 | 0.00 | 0.00 | 0.00 | 38 | 936.2 |
| 20260831184258 | 77 | 19 | 0.0 | 1.0 | 0.00 | 0.00 | 0.00 | 37 | 936.2 |
| 20260831183753 | 76 | 333 | 5.0 | 6.0 | 0.00 | 0.00 | 0.00 | 38 | 936.5 |
| 20260831183252 | 77 | 9 | 0.0 | 0.0 | 0.00 | 0.00 | 0.00 | 38 | 936.5 |
| 20260831182751 | 75 | 4 | 0.0 | 6.0 | 0.00 | 0.00 | 0.00 | 38 | 936.5 |
| 20260831182246 | 75 | 351 | 5.0 | 7.0 | 0.00 | 0.00 | 0.00 | 43 | 936.5 |
| 20260831181741 | 75 | 338 | 0.0 | 6.0 | 0.00 | 0.00 | 0.00 | 42 | 936.4 |
| 20260831181237 | 74 | 359 | 2.0 | 6.0 | 0.00 | 0.00 | 0.00 | 43 | 936.4 |
| 20260831180737 | 75 | 337 | 0.0 | 0.0 | 0.00 | 0.00 | 0.00 | 41 | 936.5 |
| 20260831180232 | 75 | 335 | 2.0 | 3.0 | 0.00 | 0.00 | 0.00 | 43 | 936.6 |
| 20260831175731 | 73 | 348 | 5.0 | 8.0 | 0.00 | 0.00 | 0.00 | 45 | 936.4 |
| 20260831175228 | 73 | 357 | 3.0 | 6.0 | 0.00 | 0.00 | 0.00 | 44 | 936.8 |
| 20260831174722 | 73 | 332 | 0.0 | 5.0 | 0.00 | 0.00 | 0.00 | 47 | 936.6 |
| 20260831174218 | 71 | 6 | 3.0 | 5.0 | 0.00 | 0.00 | 0.00 | 47 | 936.8 |
| 20260831173717 | 71 | 14 | 0.0 | 6.0 | 0.00 | 0.00 | 0.00 | 50 | 936.9 |
| 20260831173212 | 71 | 14 | 4.0 | 7.0 | 0.00 | 0.00 | 0.00 | 50 | 936.9 |
| 20260831172712 | 71 | 10 | 1.0 | 3.0 | 0.00 | 0.00 | 0.00 | 48 | 936.8 |
| 20260831172208 | 70 | 349 | 1.0 | 2.0 | 0.00 | 0.00 | 0.00 | 49 | 936.9 |
| 20260831171702 | 69 | 250 | 1.0 | 3.0 | 0.00 | 0.00 | 0.00 | 52 | 936.9 |
| 20260831171200 | 68 | 297 | 0.0 | 3.0 | 0.00 | 0.00 | 0.00 | 53 | 937.0 |
| 20260831170656 | 68 | 354 | 0.0 | 0.0 | 0.00 | 0.00 | 0.00 | 55 | 937.0 |
| 20260831170152 | 68 | 299 | 3.0 | 3.0 | 0.00 | 0.00 | 0.00 | 56 | 936.9 |
| 20260831165648 | 67 | 4 | 3.0 | 5.0 | 0.00 | 0.00 | 0.00 | 57 | 936.9 |
| 20260831165144 | 66 | 8 | 0.0 | 2.0 | 0.00 | 0.00 | 0.00 | 55 | 936.9 |
| 20260831164640 | 66 | 344 | 1.0 | 3.0 | 0.00 | 0.00 | 0.00 | 58 | 937.0 |
| 20260831164136 | 65 | 353 | 3.0 | 5.0 | 0.00 | 0.00 | 0.00 | 60 | 936.9 |
| 20260831163631 | 64 | 318 | 3.0 | 5.0 | 0.00 | 0.00 | 0.00 | 60 | 936.9 |
| 20260831163126 | 64 | 356 | 3.0 | 3.0 | 0.00 | 0.00 | 0.00 | 59 | 936.7 |
| 20260831162625 | 63 | 334 | 3.0 | 5.0 | 0.00 | 0.00 | 0.00 | 60 | 936.7 |
| 20260831162123 | 63 | 7 | 0.0 | 0.0 | 0.00 | 0.00 | 0.00 | 62 | 936.6 |
| 20260831161619 | 62 | 7 | 3.0 | 5.0 | 0.00 | 0.00 | 0.00 | 61 | 936.7 |